Location: L�gaud
(45.7115°N, 1.7775°E)
Time: 16:29:55
(UTC+00:00)

Okean 1-7 - Pass Details

Date: 03 March 2021
Orbit: 590 x 619 km, 82.5° (Epoch: 11 April)

Event Time Altitude Azimuth Distance (km) Brightness Sun altitude
Rises 19:35:00 0° 348° (NNW) 2,896 6.8 -20.3°
Reaches altitude 10° 19:37:15 10° 345° (NNW) 1,982 6.0 -20.7°
Maximum altitude 19:41:35 63° 265° (W) 683 3.4 -21.4°
Enters shadow 19:45:50 10° 184° (S) 1,945 5.5 -22.2°
